TimeEDT,TemperatureF,Dew PointF,Humidity,Sea Level PressureIn,VisibilityMPH,Wind Direction,Wind SpeedMPH,Gust SpeedMPH,PrecipitationIn,Events,Conditions,WindDirDegrees,DateUTC
12:54 AM,79.0,75.0,88,30.05,10.0,South,5.8,-,N/A,,Clear,190,2013-07-29 04:54:00
1:54 AM,78.1,75.0,90,30.04,10.0,SSW,3.5,-,N/A,,Clear,200,2013-07-29 05:54:00
2:54 AM,77.0,73.9,90,30.03,8.0,SSW,3.5,-,N/A,,Clear,200,2013-07-29 06:54:00
3:54 AM,77.0,73.9,90,30.03,7.0,Calm,Calm,-,N/A,,Clear,0,2013-07-29 07:54:00
4:54 AM,75.9,73.9,94,30.04,7.0,SSW,3.5,-,N/A,,Clear,200,2013-07-29 08:54:00
5:29 AM,75.2,73.4,94,30.04,6.0,SW,3.5,-,N/A,,Mostly Cloudy,220,2013-07-29 09:29:00
5:54 AM,77.0,73.9,90,30.05,8.0,SW,3.5,-,N/A,,Overcast,230,2013-07-29 09:54:00
6:30 AM,77.0,73.4,89,30.05,6.0,WSW,5.8,-,N/A,,Mostly Cloudy,240,2013-07-29 10:30:00
6:54 AM,77.0,73.9,90,30.06,6.0,SW,4.6,-,N/A,,Mostly Cloudy,230,2013-07-29 10:54:00
7:54 AM,78.1,75.0,90,30.07,5.0,SW,4.6,-,N/A,,Overcast,220,2013-07-29 11:54:00
8:16 AM,78.8,75.2,89,30.08,6.0,Calm,Calm,-,N/A,,Overcast,0,2013-07-29 12:16:00
8:27 AM,78.8,75.2,89,30.08,6.0,SW,3.5,-,N/A,,Overcast,230,2013-07-29 12:27:00
8:39 AM,78.8,75.2,89,30.08,6.0,Variable,3.5,-,N/A,,Overcast,0,2013-07-29 12:39:00
8:54 AM,81.0,75.9,85,30.09,6.0,Variable,3.5,-,N/A,,Haze,0,2013-07-29 12:54:00
9:01 AM,80.6,75.2,84,30.08,6.0,SW,5.8,-,N/A,,Haze,230,2013-07-29 13:01:00
9:13 AM,82.4,75.2,79,30.09,7.0,Variable,4.6,-,N/A,,Scattered Clouds,0,2013-07-29 13:13:00
9:43 AM,82.4,75.2,79,30.09,8.0,Calm,Calm,-,N/A,,Mostly Cloudy,0,2013-07-29 13:43:00
9:54 AM,82.0,75.0,79,30.09,8.0,Calm,Calm,-,N/A,,Overcast,0,2013-07-29 13:54:00
10:46 AM,84.2,75.2,74,30.10,8.0,Variable,3.5,-,N/A,,Overcast,0,2013-07-29 14:46:00
10:54 AM,84.9,75.0,72,30.10,9.0,South,3.5,-,N/A,,Overcast,190,2013-07-29 14:54:00
11:28 AM,84.2,75.2,74,30.10,9.0,Calm,Calm,-,N/A,,Mostly Cloudy,0,2013-07-29 15:28:00
11:54 AM,86.0,75.0,70,30.10,9.0,SSW,4.6,-,N/A,,Scattered Clouds,210,2013-07-29 15:54:00
12:54 PM,88.0,75.9,67,30.09,9.0,SSE,3.5,-,N/A,,Clear,160,2013-07-29 16:54:00
1:23 PM,82.4,75.2,79,30.08,2.5,SSW,5.8,-,0.04,Rain-Thunderstorm,Heavy Thunderstorms and Rain,200,2013-07-29 17:23:00
1:29 PM,80.6,77.0,89,30.08,0.8,SSW,16.1,21.9,0.21,Rain-Thunderstorm,Heavy Thunderstorms and Rain,210,2013-07-29 17:29:00
1:38 PM,77.0,71.6,83,30.08,0.5,South,8.1,-,0.49,Rain-Thunderstorm,Heavy Thunderstorms and Rain,190,2013-07-29 17:38:00
1:42 PM,75.2,71.6,89,30.07,1.0,South,8.1,-,0.50,Rain-Thunderstorm,Heavy Thunderstorms and Rain,170,2013-07-29 17:42:00
1:47 PM,77.0,69.8,78,30.07,3.0,SSE,8.1,-,0.50,Rain-Thunderstorm,Light Thunderstorms and Rain,160,2013-07-29 17:47:00
1:54 PM,78.1,66.9,68,30.06,10.0,Variable,3.5,16.1,0.50,Rain-Thunderstorm,Light Thunderstorms and Rain,0,2013-07-29 17:54:00
2:54 PM,75.9,70.0,82,30.07,10.0,Calm,Calm,-,0.01,Thunderstorm,Mostly Cloudy,0,2013-07-29 18:54:00
3:14 PM,78.8,71.6,78,30.09,10.0,West,10.4,17.3,N/A,Thunderstorm,Mostly Cloudy,270,2013-07-29 19:14:00
3:41 PM,77.0,71.6,83,30.10,9.0,SW,4.6,-,0.00,Rain-Thunderstorm,Light Thunderstorms and Rain,230,2013-07-29 19:41:00
3:54 PM,75.9,72.0,87,30.11,9.0,SSW,6.9,-,0.00,Rain-Thunderstorm,Light Thunderstorms and Rain,200,2013-07-29 19:54:00
4:05 PM,75.2,71.6,89,30.10,7.0,Variable,4.6,-,0.02,Rain-Thunderstorm,Rain,0,2013-07-29 20:05:00
4:15 PM,75.2,69.8,83,30.12,5.0,South,4.6,-,0.03,Rain-Thunderstorm,Rain,190,2013-07-29 20:15:00
4:50 PM,73.4,69.8,88,30.10,8.0,South,4.6,-,0.04,Rain,Light Rain,190,2013-07-29 20:50:00
4:54 PM,73.9,71.1,91,30.11,10.0,SSW,4.6,-,0.04,Rain,Light Rain,200,2013-07-29 20:54:00
5:54 PM,75.9,72.0,87,30.12,10.0,South,3.5,-,0.00,,Mostly Cloudy,170,2013-07-29 21:54:00
6:12 PM,77.0,71.6,83,30.11,10.0,Calm,Calm,-,N/A,,Mostly Cloudy,0,2013-07-29 22:12:00
6:24 PM,78.8,73.4,83,30.12,10.0,South,3.5,-,N/A,,Mostly Cloudy,170,2013-07-29 22:24:00
6:54 PM,78.1,73.0,84,30.13,10.0,SSE,5.8,-,N/A,,Mostly Cloudy,160,2013-07-29 22:54:00
7:54 PM,77.0,73.0,88,30.13,10.0,South,4.6,-,N/A,,Clear,190,2013-07-29 23:54:00
8:54 PM,75.9,73.0,91,30.14,9.0,SSW,4.6,-,N/A,,Clear,200,2013-07-30 00:54:00
9:54 PM,75.0,72.0,90,30.16,10.0,Calm,Calm,-,N/A,,Clear,0,2013-07-30 01:54:00
10:54 PM,75.0,72.0,90,30.16,10.0,Calm,Calm,-,N/A,,Clear,0,2013-07-30 02:54:00
11:54 PM,73.9,71.1,91,30.16,8.0,Calm,Calm,-,N/A,,Clear,0,2013-07-30 03:54:00